EW9629 Weather Reports


time (UTC)temp
C
wind
direction
speed
KPH
gust
KPH
rain 1hr
cm
rain 24hr
cm
rain mn
cm
humidity
%
barometer
mb
20260906113059 26 286 0.0 3.2 0.00 0.00 0.00 96 1010.6
20260906111553 26 315 0.0 3.2 0.00 0.00 0.00 96 1010.6
20260906110053 26 0 0.0 1.6 0.00 0.00 0.00 96 1010.4
20260906104616 26 0 0.0 3.2 0.00 0.00 0.00 96 1010.3
20260906103053 26 0 0.0 3.2 0.00 0.00 0.00 96 1010.1
20260906101557 26 0 0.0 3.2 0.00 0.00 0.00 96 1010.1
20260906100054 26 284 0.0 3.2 0.00 0.00 0.00 96 1010.0
20260906094637 26 0 0.0 3.2 0.00 0.00 0.00 95 1009.9
20260906093105 26 0 0.0 3.2 0.00 0.00 0.00 95 1009.8
20260906091609 27 350 0.0 3.2 0.00 0.00 0.00 95 1009.7
20260906084557 27 219 0.0 3.2 0.00 0.00 0.00 95 1010.0
20260906083101 27 319 0.0 3.2 0.00 0.00 0.00 95 1010.0
20260906081603 27 0 0.0 0.0 0.00 0.00 0.00 95 1010.0
20260906074601 27 0 0.0 0.0 0.00 0.00 0.00 94 1010.1
20260906073102 27 0 0.0 3.2 0.00 0.00 0.00 94 1010.1
20260906071553 27 0 0.0 3.2 0.00 0.00 0.00 94 1010.3
20260906070103 27 0 0.0 3.2 0.00 0.00 0.00 94 1010.1
20260906064558 27 0 0.0 3.2 0.00 0.00 0.00 94 1010.2
20260906063057 27 0 0.0 3.2 0.00 0.00 0.00 94 1010.1
20260906061600 27 0 0.0 3.2 0.00 0.00 0.00 93 1010.1
20260906060056 28 0 0.0 4.8 0.00 0.00 0.00 93 1010.1
20260906054601 28 229 0.0 4.8 0.00 0.00 0.00 93 1010.2
20260906053055 28 281 0.0 8.0 0.00 0.00 0.00 93 1010.4
20260906051552 28 261 0.0 6.4 0.00 0.00 0.00 93 1010.7
20260906050107 28 286 0.0 3.2 0.00 0.00 0.00 92 1010.7
20260906044557 28 216 0.0 6.4 0.00 0.00 0.00 92 1010.9
20260906043056 28 213 0.0 4.8 0.00 0.00 0.00 92 1011.0
20260906041554 28 281 1.6 6.4 0.00 0.00 0.00 92 1011.0
20260906040123 28 0 0.0 8.0 0.00 0.00 0.00 92 1011.2
20260906034604 28 147 0.0 6.4 0.00 0.00 0.00 91 1011.0
20260906033059 28 290 1.6 8.0 0.00 0.00 0.00 91 1011.3
20260906031604 28 0 0.0 6.4 0.00 0.00 0.00 91 1011.4
20260906030101 28 0 0.0 4.8 0.00 0.00 0.00 91 1011.3
20260906024603 28 0 0.0 6.4 0.00 0.00 0.00 91 1010.8
20260906023054 28 227 0.0 6.4 0.00 0.00 0.00 90 1010.6
20260906021604 28 0 0.0 6.4 0.00 0.00 0.00 90 1010.3
20260906020106 28 189 0.0 4.8 0.00 0.00 0.00 90 1010.6
20260906014559 28 0 0.0 4.8 0.00 0.00 0.00 90 1010.8
20260906013057 29 0 0.0 3.2 0.00 0.00 0.00 89 1010.9
20260906011558 29 0 0.0 3.2 0.00 0.00 0.00 88 1010.6
20260906010108 29 0 0.0 3.2 0.00 0.00 0.00 87 1010.6
20260906004558 29 0 0.0 3.2 0.00 0.00 0.00 87 1010.8
20260906003054 30 0 0.0 3.2 0.00 0.00 0.00 86 1011.1
20260906001605 30 0 0.0 3.2 0.00 0.00 0.00 86 1011.0
20260906000106 30 0 0.0 3.2 0.00 0.00 0.00 85 1011.0
20260905234603 30 0 0.0 3.2 0.00 0.00 0.00 83 1010.9
20260905233112 31 144 0.0 3.2 0.00 0.00 0.00 82 1010.7
20260905231559 31 0 0.0 3.2 0.00 0.00 0.00 81 1010.7
20260905230108 31 0 0.0 4.8 0.00 0.00 0.00 81 1010.5
20260905224609 32 0 0.0 8.0 0.00 0.00 0.00 80 1010.5
20260905223053 32 120 0.0 4.8 0.00 0.00 0.00 78 1010.5
20260905221600 32 136 1.6 8.0 0.00 0.00 0.00 76 1010.5
20260905220105 33 131 1.6 12.9 0.00 0.00 0.00 75 1010.7
20260905214600 33 0 0.0 9.7 0.00 0.00 0.00 75 1010.7
20260905213107 33 164 1.6 9.7 0.00 0.00 0.00 75 1010.6
20260905211554 33 0 1.6 8.0 0.00 0.00 0.00 74 1010.5
20260905210129 34 128 0.0 9.7 0.00 0.00 0.00 74 1010.4
20260905204603 33 313 0.0 4.8 0.00 0.00 0.00 75 1010.3
20260905203059 34 352 1.6 4.8 0.00 0.00 0.00 70 1010.1
20260905201609 34 0 1.6 6.4 0.00 0.00 0.00 68 1010.2
20260905200142 35 148 1.6 8.0 0.00 0.00 0.00 67 1010.1
20260905194604 35 0 0.0 8.0 0.00 0.00 0.00 67 1010.4
20260905193054 35 10 3.2 4.8 0.00 0.00 0.00 69 1010.5
20260905191555 35 175 0.0 6.4 0.00 0.00 0.00 71 1010.7
20260905190053 34 0 0.0 9.7 0.00 0.00 0.00 71 1011.1
20260905184611 35 0 1.6 8.0 0.00 0.00 0.00 69 1011.2
20260905183112 35 226 1.6 8.0 0.00 0.00 0.00 71 1011.6
20260905181556 35 121 0.0 11.3 0.00 0.00 0.00 71 1011.6
20260905180108 34 133 0.0 11.3 0.00 0.00 0.00 72 1011.9
20260905174601 34 133 1.6 6.4 0.00 0.00 0.00 72 1012.3
20260905173055 33 149 0.0 3.2 0.00 0.00 0.00 76 1012.7
20260905171604 33 148 0.0 8.0 0.00 0.00 0.00 74 1012.8
20260905170057 32 0 0.0 6.4 0.00 0.00 0.00 77 1012.9
20260905164556 31 240 0.0 4.8 0.00 0.00 0.00 80 1013.1
20260905163054 30 0 0.0 3.2 0.00 0.00 0.00 82 1013.4
20260905161555 31 0 0.0 6.4 0.00 0.00 0.00 78 1013.5
20260905160100 32 0 0.0 4.8 0.00 0.00 0.00 74 1013.6
20260905154558 32 125 0.0 6.4 0.00 0.15 0.00 73 1013.7
20260905153057 31 0 0.0 3.2 0.00 0.15 0.00 77 1013.6
20260905151604 31 0 0.0 6.4 0.00 0.15 0.00 78 1013.9
20260905150058 31 0 0.0 6.4 0.00 0.15 0.00 78 1014.0
20260905144558 30 330 1.6 4.8 0.00 0.15 0.00 80 1013.9
20260905143105 29 338 3.2 8.0 0.00 0.15 0.00 84 1014.0
20260905141601 28 20 3.2 8.0 0.00 0.15 0.00 87 1013.9
20260905134557 27 223 0.0 4.8 0.00 0.15 0.00 91 1014.0
20260905133102 27 0 0.0 4.8 0.00 0.15 0.00 93 1014.1
20260905131603 27 346 0.0 3.2 0.00 0.15 0.00 95 1014.1
20260905130055 27 339 0.0 4.8 0.00 0.15 0.00 96 1014.0
20260905124556 26 0 0.0 3.2 0.00 0.15 0.00 96 1013.9
20260905123056 26 0 0.0 0.0 0.00 0.15 0.00 97 1013.9
20260905121603 26 0 0.0 3.2 0.00 0.15 0.00 97 1014.1
20260905114610 26 0 0.0 3.2 0.00 0.15 0.00 97 1013.8